Weather History for Wichita, KS

Change the Weather History Date:

Friday, April 27, 2012

  Actual Average Record
Temperature  
Mean Temperature 72 °F 60 °F  
Max Temperature 84 °F 71 °F 94 °F (1956)
Min Temperature 59 °F 49 °F 31 °F (1967)
Degree Days  
Heating Degree Days 0 6  
Month to date heating degree days 132 273  
Since 1 July heating degree days 3605 4490  
Cooling Degree Days 7 1  
Month to date cooling degree days 54 20  
Year to date cooling degree days 94 22  
Growing Degree Days 25 (Base 50)    
Moisture  
Dew Point 58 °F    
Average Humidity 61    
Maximum Humidity 90    
Minimum Humidity 31    
Precipitation  
Precipitation T in 0.11 in 2.13 in (1951)
Month to date precipitation 3.72 2.27  
Year to date precipitation 11.35 6.97  
Snow  
Snow 0.00 in 0.00 in 0.00 in (2007)
Month to date snowfall 0.0 0.2  
Since 1 July snowfall 3.0 14.9  
Snow Depth 0.00 in    
Sea Level Pressure  
Sea Level Pressure 29.63 in    
Wind  
Wind Speed 18 mph (SE)    
Max Wind Speed 32 mph    
Max Gust Speed 40 mph    
Visibility 9 miles    
Events Rain , Thunderstorm    
T = Trace of Precipitation, MM = Missing Value Source: NWS Daily Summary

Daily Weather History Graph

Daily Weather History Graph

Search for Another Location

Airport:

Trip Planner

Search our weather history database for the weather conditions in past years. The results will help you decide how hot, cold, wet, or windy it might be!

Date:

Astronomy

Apr. 27, 2012 Rise Set
Actual Time 6:38 AM CDT 8:16 PM CDT
Civil Twilight 6:10 AM CDT 8:44 PM CDT
Nautical Twilight 5:36 AM CDT 9:18 PM CDT
Astronomical Twilight 5:01 AM CDT 9:54 PM CDT
Moon 11:19 AM CDT (4/27) 1:02 AM CDT (4/27)
Length of Visible Light 14h 34m
Length of Day
13h 38m
Waxing Crescent, 33% of the Moon is Illuminated
Apr 27
Waxing Crescent
Apr 29
First Quarter
May 5
Full
May 12
Last Quarter
May 20
New

Hourly Weather History & Observations

Time (CDT) Temp. Heat Index Dew Point Humidity Pressure Visibility Wind Dir Wind Speed Gust Speed Precip Events Conditions
12:53 AM 70.0 °F - 55.9 °F 61% 29.83 in 10.0 mi ESE 9.2 mph - N/A   Mostly Cloudy
1:53 AM 71.1 °F - 54.0 °F 55% 29.73 in 10.0 mi ESE 24.2 mph 32.2 mph N/A   Overcast
2:53 AM 71.1 °F - 54.0 °F 55% 29.72 in 10.0 mi East 17.3 mph 24.2 mph N/A   Overcast
3:53 AM 69.1 °F - 55.9 °F 63% 29.75 in 10.0 mi ESE 8.1 mph - N/A   Scattered Clouds
4:53 AM 68.0 °F - 54.0 °F 61% 29.70 in 10.0 mi ESE 17.3 mph - N/A   Scattered Clouds
5:34 AM 68.0 °F - 53.6 °F 60% 29.72 in 10.0 mi ESE 18.4 mph 23.0 mph N/A   Mostly Cloudy
5:53 AM 66.9 °F - 54.0 °F 63% 29.67 in 10.0 mi ESE 18.4 mph - N/A   Scattered Clouds
6:26 AM 66.2 °F - 55.4 °F 68% 29.70 in 10.0 mi ESE 17.3 mph - N/A   Mostly Cloudy
6:53 AM 66.2 °F - 55.4 °F 68% 29.69 in 10.0 mi ESE 19.6 mph 24.2 mph N/A   Mostly Cloudy
7:11 AM 66.2 °F - 55.4 °F 68% 29.69 in 10.0 mi ESE 19.6 mph 27.6 mph N/A   Mostly Cloudy
7:45 AM 66.2 °F - 57.2 °F 73% 29.69 in 10.0 mi SE 19.6 mph 24.2 mph N/A   Overcast
7:53 AM 66.9 °F - 57.9 °F 73% 29.63 in 10.0 mi ESE 21.9 mph 31.1 mph N/A   Mostly Cloudy
8:02 AM 66.2 °F - 59.0 °F 78% 29.67 in 8.0 mi ESE 24.2 mph 31.1 mph 0.00 in Rain , Thunderstorm Light Thunderstorms and Rain
8:42 AM 66.2 °F - 60.8 °F 83% 29.66 in 10.0 mi SE 19.6 mph 27.6 mph 0.00 in   Mostly Cloudy
8:50 AM 66.2 °F - 60.8 °F 83% 29.66 in 10.0 mi SE 18.4 mph 26.5 mph 0.00 in   Overcast
8:53 AM 66.0 °F - 61.0 °F 84% 29.63 in 10.0 mi SE 16.1 mph 24.2 mph 0.00 in   Overcast
9:53 AM 68.0 °F - 64.0 °F 87% 29.60 in 5.0 mi SE 23.0 mph 29.9 mph N/A   Overcast
10:16 AM 66.2 °F - 64.4 °F 94% 29.62 in 2.0 mi SE 18.4 mph 26.5 mph 0.00 in Rain Light Rain
10:34 AM 68.0 °F - 64.4 °F 88% 29.61 in 5.0 mi SE 20.7 mph 28.8 mph 0.00 in   Overcast
10:53 AM 69.1 °F - 66.0 °F 90% 29.57 in 6.0 mi SE 20.7 mph 29.9 mph 0.00 in   Overcast
11:21 AM 69.8 °F - 66.2 °F 88% 29.60 in 7.0 mi SSE 20.7 mph 27.6 mph N/A   Overcast
11:53 AM 70.0 °F - 66.0 °F 87% 29.56 in 7.0 mi SSE 20.7 mph 28.8 mph N/A   Overcast
12:53 PM 73.0 °F - 66.0 °F 79% 29.54 in 7.0 mi SSE 17.3 mph 24.2 mph N/A   Overcast
1:10 PM 73.4 °F - 66.2 °F 78% 29.57 in 10.0 mi SSE 17.3 mph - N/A   Mostly Cloudy
1:53 PM 78.1 °F - 66.9 °F 68% 29.50 in 10.0 mi SSE 25.3 mph 32.2 mph N/A   Scattered Clouds
2:53 PM 79.0 °F - 66.9 °F 66% 29.47 in 10.0 mi SSE 24.2 mph 32.2 mph 0.00 in   Mostly Cloudy
3:53 PM 84.0 °F - 51.1 °F 32% 29.46 in 10.0 mi SSW 24.2 mph 35.7 mph N/A   Scattered Clouds
4:53 PM 82.9 °F - 48.0 °F 29% 29.46 in 10.0 mi South 27.6 mph 34.5 mph N/A   Scattered Clouds
5:53 PM 82.9 °F - 52.0 °F 34% 29.44 in 10.0 mi SSW 17.3 mph - N/A   Scattered Clouds
6:53 PM 82.0 °F 81.2 °F 53.1 °F 37% 29.49 in 10.0 mi West 20.7 mph 32.2 mph N/A   Scattered Clouds
7:53 PM 77.0 °F - 46.9 °F 34% 29.55 in 10.0 mi West 12.7 mph - N/A   Partly Cloudy
8:53 PM 71.1 °F - 50.0 °F 47% 29.62 in 10.0 mi West 11.5 mph - N/A   Partly Cloudy
9:53 PM 66.0 °F - 53.1 °F 63% 29.68 in 10.0 mi West 9.2 mph - N/A   Partly Cloudy
10:53 PM 66.0 °F - 50.0 °F 56% 29.69 in 10.0 mi NW 12.7 mph - N/A   Partly Cloudy
11:53 PM 63.0 °F - 50.0 °F 63% 29.70 in 10.0 mi NNW 6.9 mph - N/A   Partly Cloudy